IBE0436 LEBB-LEMD

Flight info

Callsign IBE0436
Flight time N/A
Altitude 25000
Route AMTOS L14 NEA N864 NONTU
Aircraft A321/M-SDE3FGHIRWY/LB1

Departure

Time 2026-05-05 09:17
Airport Bilbao Airport (LEBB)

Arrival

Time N/A
Airport Adolfo Suárez Madrid–Barajas Airport (LEMD)
Time Latitude Longitude Altitude Speed Heading
2026-05-05 09:09 43.30423 -2.90635 133 ft 0 kts 26°
2026-05-05 09:11 43.30419 -2.90638 133 ft 4 kts 27°
2026-05-05 09:11 43.30396 -2.90657 133 ft 4 kts 40°
2026-05-05 09:12 43.30378 -2.90684 133 ft 4 kts 65°
2026-05-05 09:12 43.30376 -2.90713 133 ft 2 kts 115°
2026-05-05 09:12 43.30377 -2.90716 133 ft 0 kts 116°
2026-05-05 09:13 43.30374 -2.90709 133 ft 3 kts 116°
2026-05-05 09:13 43.30351 -2.90647 133 ft 12 kts 117°
2026-05-05 09:14 43.30287 -2.90552 133 ft 15 kts 137°
2026-05-05 09:14 43.30180 -2.90556 133 ft 18 kts 208°
2026-05-05 09:14 43.30086 -2.90480 133 ft 21 kts 117°
2026-05-05 09:14 43.30006 -2.90268 133 ft 26 kts 117°
2026-05-05 09:15 43.29919 -2.90032 133 ft 29 kts 117°
2026-05-05 09:15 43.29825 -2.89778 133 ft 31 kts 117°
2026-05-05 09:15 43.29742 -2.89587 133 ft 19 kts 169°
2026-05-05 09:15 43.29627 -2.89677 133 ft 21 kts 249°
2026-05-05 09:16 43.29677 -2.89867 133 ft 23 kts 299°
2026-05-05 09:16 43.29832 -2.90298 133 ft 87 kts 296°
2026-05-05 09:16 43.30209 -2.91317 134 ft 150 kts 296°
2026-05-05 09:16 43.30697 -2.92682 638 ft 156 kts 296°
2026-05-05 09:17 43.31141 -2.94011 1392 ft 157 kts 296°
2026-05-05 09:17 43.31652 -2.95465 1835 ft 177 kts 296°
2026-05-05 09:17 43.32207 -2.97028 2220 ft 188 kts 297°
2026-05-05 09:17 43.33094 -2.98413 2559 ft 204 kts 328°
2026-05-05 09:18 43.34487 -2.99046 2949 ft 218 kts 345°
2026-05-05 09:18 43.35799 -3.00038 3508 ft 220 kts 311°
2026-05-05 09:18 43.36767 -3.01707 4113 ft 227 kts 307°
2026-05-05 09:18 43.37759 -3.03446 4736 ft 235 kts 308°
2026-05-05 09:19 43.38664 -3.05354 5326 ft 243 kts 291°
2026-05-05 09:19 43.38928 -3.07663 5930 ft 250 kts 266°
2026-05-05 09:19 43.38841 -3.08466 6126 ft 253 kts 257°